When you browse on this site, cookies collect data to enhance your experience and personalize the content and advertising you see.
Visit our Privacy Policy to learn more. By continuing to use the site, you agree to this use of cookies and data.
  • In Spain
  • List of Countries
  • For 7 days
  • Water Temperature
  • Satellite Maps
  • Weather Map
  • Weather Widgets
  • user-avatar
    Login

    Hourly Weather Bruges

    Today, 19 December, Wednesday

    Time Temperature Precipitation Wind Pressure Humidity
    00:00 +3°C° 0.5 mm 9 mps 754 mmHg 80%
    01:00 +5°C° 0.5 mm 9 mps 754 mmHg 82%
    02:00 +5°C° 0.5 mm 8 mps 754 mmHg 85%
    03:00 +6°C° 0.5 mm 8 mps 754 mmHg 88%
    04:00 +6°C° 0 mm 8 mps 754 mmHg 89%
    05:00 +6°C° 0 mm 7 mps 755 mmHg 90%
    06:00 +6°C° 0 mm 7 mps 755 mmHg 91%
    07:00 +6°C° 0 mm 7 mps 755 mmHg 90%
    08:00 +6°C° 0 mm 8 mps 755 mmHg 89%
    09:00 +6°C° 0 mm 8 mps 755 mmHg 89%
    10:00 +6°C° 0 mm 8 mps 755 mmHg 86%
    11:00 +6°C° 0 mm 8 mps 755 mmHg 84%
    12:00 +7°C° 0 mm 8 mps 755 mmHg 82%
    13:00 +7°C° 0.1 mm 8 mps 755 mmHg 81%
    14:00 +7°C° 0.1 mm 8 mps 755 mmHg 81%
    15:00 +8°C° 0.1 mm 7 mps 755 mmHg 81%
    16:00 +6°C° 0 mm 7 mps 755 mmHg 83%
    17:00 +6°C° 0 mm 7 mps 755 mmHg 84%
    18:00 +5°C° 0 mm 7 mps 755 mmHg 86%
    19:00 +5°C° 0 mm 7 mps 756 mmHg 87%
    20:00 +5°C° 0 mm 7 mps 756 mmHg 88%
    21:00 +4°C° 0 mm 7 mps 756 mmHg 90%
    22:00 +4°C° 0.1 mm 7 mps 756 mmHg 90%
    23:00 +4°C° 0.1 mm 7 mps 755 mmHg 89%

    Tomorrow, 20 December, Thursday

    Time Temperature Precipitation Wind Pressure Humidity
    00:00 +4°C° 0.1 mm 8 mps 755 mmHg 89%
    01:00 +4°C° 0.6 mm 8 mps 755 mmHg 88%
    02:00 +5°C° 0.6 mm 9 mps 755 mmHg 87%
    03:00 +5°C° 0.6 mm 9 mps 755 mmHg 86%
    04:00 +5°C° 0.4 mm 9 mps 755 mmHg 86%
    05:00 +5°C° 0.4 mm 8 mps 755 mmHg 85%
    06:00 +5°C° 0.4 mm 8 mps 755 mmHg 84%
    07:00 +5°C° 0.1 mm 8 mps 756 mmHg 84%
    08:00 +5°C° 0.1 mm 8 mps 756 mmHg 84%
    09:00 +5°C° 0.1 mm 8 mps 756 mmHg 84%
    10:00 +6°C° 0.3 mm 8 mps 756 mmHg 82%
    11:00 +7°C° 0.3 mm 9 mps 757 mmHg 80%
    12:00 +7°C° 0.3 mm 9 mps 757 mmHg 78%
    13:00 +7°C° 0.5 mm 9 mps 757 mmHg 79%
    14:00 +7°C° 0.5 mm 9 mps 757 mmHg 79%
    15:00 +7°C° 0.5 mm 9 mps 757 mmHg 79%
    16:00 +7°C° 0.4 mm 9 mps 757 mmHg 80%
    17:00 +7°C° 0.4 mm 9 mps 757 mmHg 81%
    18:00 +6°C° 0.4 mm 9 mps 757 mmHg 82%
    19:00 +6°C° 0.3 mm 9 mps 757 mmHg 81%
    20:00 +6°C° 0.3 mm 9 mps 757 mmHg 80%
    21:00 +6°C° 0.3 mm 8 mps 757 mmHg 80%
    22:00 +6°C° 0.1 mm 8 mps 756 mmHg 82%
    23:00 +6°C° 0.1 mm 8 mps 756 mmHg 84%

    Day after tomorrow, 21 December, Friday

    Time Temperature Precipitation Wind Pressure Humidity
    00:00 +8°C° 0.1 mm 7 mps 755 mmHg 87%
    01:00 +7°C° 1 mm 8 mps 754 mmHg 88%
    02:00 +7°C° 1 mm 8 mps 753 mmHg 90%
    03:00 +9°C° 1 mm 8 mps 752 mmHg 91%
    04:00 +10°C° 1.1 mm 8 mps 751 mmHg 91%
    05:00 +10°C° 1.1 mm 9 mps 749 mmHg 90%
    06:00 +11°C° 1.1 mm 9 mps 748 mmHg 90%
    07:00 +12°C° 0.5 mm 11 mps 748 mmHg 88%
    08:00 +12°C° 0.5 mm 12 mps 748 mmHg 86%
    09:00 +12°C° 0.5 mm 13 mps 748 mmHg 83%
    10:00 +12°C° 0 mm 13 mps 749 mmHg 79%
    11:00 +10°C° 0 mm 13 mps 750 mmHg 75%
    12:00 +9°C° 0 mm 13 mps 751 mmHg 70%
    13:00 +9°C° 0 mm 13 mps 752 mmHg 70%
    14:00 +9°C° 0 mm 12 mps 753 mmHg 70%
    15:00 +9°C° 0 mm 11 mps 753 mmHg 70%
    16:00 +9°C° 0 mm 11 mps 754 mmHg 73%
    17:00 +8°C° 0 mm 10 mps 754 mmHg 77%
    18:00 +8°C° 0 mm 9 mps 755 mmHg 80%
    19:00 +8°C° 0 mm 9 mps 754 mmHg 82%
    20:00 +7°C° 0 mm 9 mps 754 mmHg 85%
    21:00 +7°C° 0 mm 8 mps 754 mmHg 87%
    22:00 +7°C° 0 mm 8 mps 753 mmHg 87%
    23:00 +7°C° 0 mm 8 mps 753 mmHg 86%

    22 December, Saturday

    Time Temperature Precipitation Wind Pressure Humidity
    00:00 +7°C° 0 mm 8 mps 752 mmHg 86%
    01:00 +8°C° 0.4 mm 10 mps 752 mmHg 83%
    02:00 +9°C° 0.4 mm 11 mps 752 mmHg 81%
    03:00 +10°C° 0.4 mm 12 mps 752 mmHg 78%
    04:00 +11°C° 0.2 mm 11 mps 752 mmHg 80%
    05:00 +9°C° 0.2 mm 10 mps 753 mmHg 82%
    06:00 +10°C° 0.2 mm 9 mps 754 mmHg 84%
    07:00 +8°C° 0 mm 9 mps 755 mmHg 82%
    08:00 +8°C° 0 mm 9 mps 755 mmHg 80%
    09:00 +8°C° 0 mm 9 mps 756 mmHg 79%
    10:00 +8°C° 0 mm 10 mps 757 mmHg 75%
    11:00 +8°C° 0 mm 10 mps 757 mmHg 71%
    12:00 +8°C° 0 mm 11 mps 758 mmHg 67%
    13:00 +8°C° 0 mm 10 mps 759 mmHg 67%
    14:00 +8°C° 0 mm 9 mps 759 mmHg 68%
    15:00 +7°C° 0 mm 8 mps 760 mmHg 69%
    16:00 +7°C° 0 mm 8 mps 761 mmHg 72%
    17:00 +8°C° 0 mm 7 mps 761 mmHg 76%
    18:00 +7°C° 0 mm 6 mps 762 mmHg 79%
    19:00 +7°C° 0.2 mm 6 mps 762 mmHg 81%
    20:00 +8°C° 0.2 mm 6 mps 762 mmHg 83%
    21:00 +8°C° 0.2 mm 6 mps 763 mmHg 85%
    22:00 +7°C° 0 mm 6 mps 763 mmHg 86%
    23:00 +7°C° 0 mm 6 mps 763 mmHg 87%

    23 December, Sunday

    Time Temperature Precipitation Wind Pressure Humidity
    00:00 +7°C° 0 mm 6 mps 764 mmHg 87%
    01:00 +5°C° 0 mm 6 mps 764 mmHg 87%
    02:00 +5°C° 0 mm 6 mps 764 mmHg 87%
    03:00 +5°C° 0 mm 6 mps 764 mmHg 87%
    04:00 +6°C° 0 mm 5 mps 764 mmHg 88%
    05:00 +5°C° 0 mm 5 mps 765 mmHg 88%
    06:00 +5°C° 0 mm 5 mps 765 mmHg 88%
    07:00 +5°C° 0 mm 5 mps 765 mmHg 87%
    08:00 +5°C° 0 mm 5 mps 766 mmHg 87%
    09:00 +6°C° 0 mm 4 mps 766 mmHg 86%
    10:00 +6°C° 0 mm 4 mps 766 mmHg 84%
    11:00 +7°C° 0 mm 4 mps 767 mmHg 82%
    12:00 +7°C° 0 mm 4 mps 767 mmHg 80%
    13:00 +8°C° 0 mm 3 mps 767 mmHg 82%
    14:00 +8°C° 0 mm 3 mps 767 mmHg 83%
    15:00 +7°C° 0 mm 3 mps 767 mmHg 85%
    16:00 +7°C° 0 mm 3 mps 767 mmHg 87%
    17:00 +7°C° 0 mm 2 mps 767 mmHg 89%
    18:00 +7°C° 0 mm 2 mps 767 mmHg 91%
    19:00 +7°C° 0.3 mm 2 mps 767 mmHg 92%
    20:00 +7°C° 0.3 mm 2 mps 767 mmHg 94%
    21:00 +7°C° 0.3 mm 2 mps 767 mmHg 95%
    22:00 +7°C° 0.3 mm 2 mps 767 mmHg 95%
    23:00 +7°C° 0.3 mm 2 mps 767 mmHg 95%

    24 December, Monday

    Time Temperature Precipitation Wind Pressure Humidity
    00:00 +7°C° 0.3 mm 2 mps 767 mmHg 95%
    01:00 +7°C° 0.1 mm 2 mps 767 mmHg 95%
    02:00 +7°C° 0.1 mm 2 mps 767 mmHg 94%
    03:00 +7°C° 0.1 mm 2 mps 767 mmHg 94%
    04:00 +7°C° 0.1 mm 3 mps 767 mmHg 93%
    05:00 +7°C° 0.1 mm 3 mps 767 mmHg 93%
    06:00 +6°C° 0.1 mm 4 mps 767 mmHg 92%
    07:00 +6°C° 0.2 mm 4 mps 767 mmHg 92%
    08:00 +6°C° 0.2 mm 4 mps 768 mmHg 91%
    09:00 +6°C° 0.2 mm 5 mps 768 mmHg 91%
    10:00 +7°C° 0.1 mm 5 mps 768 mmHg 91%
    11:00 +8°C° 0.1 mm 5 mps 768 mmHg 91%
    12:00 +10°C° 0.1 mm 4 mps 767 mmHg 90%
    13:00 +10°C° 0 mm 4 mps 767 mmHg 91%
    14:00 +10°C° 0 mm 4 mps 767 mmHg 92%
    15:00 +11°C° 0 mm 4 mps 767 mmHg 93%
    16:00 +11°C° 0 mm 4 mps 767 mmHg 93%
    17:00 +10°C° 0 mm 4 mps 767 mmHg 94%
    18:00 +10°C° 0 mm 4 mps 767 mmHg 95%
    19:00 +10°C° 0 mm 4 mps 768 mmHg 95%
    20:00 +10°C° 0 mm 4 mps 768 mmHg 95%
    21:00 +10°C° 0 mm 4 mps 768 mmHg 96%
    22:00 +10°C° 0 mm 4 mps 768 mmHg 96%
    23:00 +9°C° 0 mm 3 mps 768 mmHg 96%
    Show more